Location: Copeville
(33.0796°N, 96.4155°W)
Time: 03:28:19
(UTC+00:00)

Oscar 11 - Pass Details

Date: 01 April 2023
Orbit: 609 x 619 km, 97.7° (Epoch: 07 June)

Event Time Altitude Azimuth Distance (km) Brightness Sun altitude
Rises 10:57:50 0° 8° (N) 2,876 10.8 -16.4°
Reaches altitude 10° 11:00:01 10° 5° (N) 1,969 9.9 -16.0°
Maximum altitude 11:04:16 65° 284° (WNW) 673 7.0 -15.1°
Drops below altitude 10° 11:08:29 10° 202° (SSW) 1,962 9.3 -14.3°
Enters shadow 11:08:53 - 202° (SSW) 2,129 9.5 -14.2°
